Theta_e
355 358 360 358 359 358 356 348 348 351 352 352 351 349 347 346 345 343 341 340 335 334 333 333 333 330 329 328 327 329 328 330 331 330 330 331 332 335 338 340 340 339 341
356 358 360 358 359 357 354 348 350 352 353 352 350 348 346 343 342 339 336 334 334 332 330 329 329 326 326 325 326 327 326 326 326 330 328 327 328 329 335 332 333 335 337
359 358 359 359 358 356 353 347 349 352 350 350 348 347 344 341 336 333 333 332 329 325 324 325 324 323 323 323 325 326 326 325 325 325 326 325 326 328 327 327 329 329 330
359 360 362 360 358 354 350 348 352 353 352 348 346 343 339 332 331 330 327 324 324 324 324 322 320 320 319 318 320 321 322 323 323 322 323 323 324 324 324 325 325 325 327
362 363 362 360 356 352 348 352 352 351 347 345 341 335 331 327 320 325 323 324 324 323 321 320 318 318 316 314 315 318 317 318 319 319 321 321 322 323 323 322 322 323 324
364 361 357 355 351 347 349 349 346 344 341 338 335 332 327 319 309 317 322 322 322 321 319 318 316 315 318 318 315 315 314 316 316 317 319 319 320 320 319 319 321 321 322
355 355 350 349 346 344 345 342 340 337 336 333 331 328 323 315 312 317 318 319 319 319 319 318 315 314 315 318 318 317 317 315 315 315 316 317 316 316 316 317 318 319 321
352 351 350 347 346 344 342 339 336 334 333 331 328 325 321 313 313 315 317 319 319 319 319 318 318 317 310 314 319 317 316 315 315 314 315 316 315 316 316 315 316 319 318
349 349 348 345 346 343 342 341 339 336 332 329 326 323 317 309 312 314 317 318 319 319 319 316 317 317 311 310 315 318 318 317 315 314 315 315 314 315 314 316 317 317 317
351 349 348 348 344 344 343 341 338 334 329 326 324 321 317 313 311 315 317 318 319 318 320 320 318 315 314 312 310 314 318 317 314 316 317 315 316 317 315 316 316 316 316
347 350 349 346 345 344 340 338 336 331 326 324 322 319 317 316 310 311 314 319 317 317 317 317 318 316 315 312 311 311 314 314 314 315 317 315 314 315 315 315 315 315 315
347 347 348 347 346 340 338 336 333 328 325 322 321 320 320 318 315 310 310 311 311 315 317 317 317 315 314 315 316 316 315 313 316 318 317 316 315 315 314 315 315 315 315
347 347 348 344 340 339 338 335 331 327 324 321 320 318 318 318 317 312 310 311 311 313 317 316 316 316 317 317 318 318 316 316 319 318 317 317 316 315 314 314 315 315 315
349 347 344 343 340 339 336 333 329 325 321 319 318 318 318 318 317 317 316 317 318 317 317 316 315 317 318 318 318 319 319 319 318 317 317 316 315 314 314 314 314 314 314
345 343 343 340 340 336 333 328 326 322 319 318 318 318 318 318 317 317 316 315 315 314 312 314 317 319 319 319 319 318 318 317 316 315 314 314 314 314 314 314 314 314 314
345 344 342 339 336 331 327 323 320 319 315 315 316 318 318 316 314 314 313 313 312 312 312 315 319 320 320 320 318 317 316 314 313 313 312 313 313 314 314 314 313 313 314
343 341 336 335 330 327 324 321 319 315 313 312 314 314 314 316 314 314 313 313 312 312 313 317 320 321 321 318 317 315 312 312 311 311 311 311 312 312 313 313 312 312 313
340 334 331 329 325 323 321 320 318 315 314 313 313 313 313 313 313 313 313 312 315 317 317 319 320 319 318 316 314 311 310 310 310 309 309 310 311 311 311 311 311 311 312
332 330 328 325 323 322 321 320 318 318 319 319 318 317 316 314 313 313 312 313 315 320 319 320 320 318 316 313 310 309 309 308 308 309 310 310 310 310 310 310 309 310 311
328 326 325 323 321 321 319 319 321 320 319 319 320 319 320 317 318 316 317 315 317 320 320 320 318 315 312 309 308 308 307 307 307 308 308 308 309 309 309 309 309 311 312
326 324 324 322 320 320 321 322 321 320 320 319 319 318 318 317 317 318 318 320 319 320 320 318 315 312 308 307 306 305 304 304 304 304 303 301 301 304 307 309 309 310 310
325 323 321 322 321 321 321 320 320 320 320 320 320 318 318 317 318 318 319 320 320 319 318 314 311 308 307 306 305 304 304 303 303 302 300 300 300 300 301 304 307 309 310
324 321 320 320 320 320 320 321 320 320 320 320 319 319 318 319 320 319 319 319 319 318 315 312 309 307 306 306 305 304 304 303 301 299 298 299 298 298 301 304 307 309 311
322 321 320 321 321 320 321 320 321 319 318 318 319 320 320 320 320 320 320 319 319 316 313 310 308 306 306 306 305 305 304 301 298 297 297 296 297 298 301 305 307 309 310
322 321 321 322 321 321 321 321 320 320 320 320 319 319 320 320 320 320 319 319 318 314 312 309 307 306 306 306 306 305 302 299 296 295 295 296 296 298 302 306 308 309 309
320 321 321 321 321 321 322 321 320 320 320 320 319 320 321 320 319 320 320 319 317 313 311 308 307 307 306 306 304 302 300 298 296 295 295 295 298 301 305 307 308 309 309
Wind_Speed
23 19 18 18 16 15 14 11 10 9 7 5 3 1 3 6 6 6 6 6 8 6 8 9 11 13 14 12 12 11 12 13 11 16 17 17 16 12 14 13 14 15 15
23 21 19 18 17 17 16 15 13 9 5 4 2 3 5 6 6 6 6 6 5 6 7 8 9 11 12 12 12 12 11 12 13 14 16 16 14 16 13 16 14 14 15
23 23 21 17 18 18 18 16 14 11 6 5 6 6 5 5 4 5 5 6 7 8 9 9 11 12 11 12 11 12 12 13 12 13 16 14 14 16 18 17 17 17 15
26 24 25 24 23 21 22 19 15 11 9 7 6 5 5 5 5 5 6 6 5 6 7 9 11 12 13 13 12 12 13 13 12 13 14 15 14 16 16 17 18 18 21
24 23 23 22 20 20 25 29 22 15 12 8 6 6 5 5 3 4 5 5 6 8 9 9 12 10 15 18 14 14 17 17 16 16 13 14 15 18 16 16 17 19 19
19 18 17 17 16 21 13 21 24 19 15 11 7 6 4 2 6 9 8 7 8 8 8 8 8 13 11 14 17 15 12 13 16 14 16 17 17 19 19 19 19 17 10
18 17 20 20 18 18 18 19 16 19 16 13 8 7 5 5 10 14 11 7 7 8 8 9 10 12 13 9 12 12 11 10 12 12 14 15 17 18 18 19 18 18 19
18 19 21 21 21 21 19 20 20 17 15 12 9 8 7 8 15 15 13 7 7 7 6 6 6 7 13 12 10 11 11 12 12 12 12 12 12 11 13 16 20 19 19
19 21 25 26 24 21 18 17 14 14 13 11 10 11 12 14 14 10 6 5 4 3 2 3 3 5 11 12 11 12 13 13 18 15 17 15 11 11 8 11 17 18 17
20 22 23 25 25 23 20 19 16 14 13 12 12 12 12 12 11 9 3 3 1 3 5 5 9 6 15 17 16 14 16 16 20 18 18 15 11 12 9 7 16 17 18
21 21 22 21 21 20 22 19 17 15 14 13 13 11 10 9 9 7 3 4 5 7 8 8 7 11 19 23 21 16 15 19 21 21 20 18 15 14 14 11 13 15 18
22 22 22 21 20 23 21 19 16 15 14 14 13 11 9 7 7 5 4 0 2 6 10 12 13 19 21 18 19 18 18 18 16 18 19 20 19 18 18 18 20 15 16
22 23 23 22 23 20 19 18 16 14 13 13 12 11 10 8 7 6 4 4 7 8 9 12 18 23 21 19 19 19 19 15 19 21 22 20 20 21 19 21 18 16 19
20 19 21 21 23 18 17 16 14 14 13 13 13 11 10 9 8 9 9 8 9 11 12 14 20 24 22 18 20 18 12 15 20 22 22 23 23 21 21 21 21 21 21
23 21 19 19 18 17 14 14 13 10 11 13 11 10 8 9 4 4 2 6 9 13 20 17 18 19 20 27 20 20 21 21 22 23 23 24 24 22 22 21 20 21 22
23 21 18 19 18 17 14 11 8 12 10 7 10 4 4 4 2 1 6 11 14 18 17 18 19 15 16 22 21 23 24 23 22 23 24 22 23 23 23 21 22 22 21
21 21 20 17 18 15 14 13 12 7 12 10 8 9 7 5 5 9 12 14 16 20 15 18 17 16 19 21 23 25 25 23 22 22 22 22 23 22 22 21 21 22 19
18 19 18 16 14 13 12 12 11 11 10 10 11 9 10 11 12 12 12 15 17 16 10 16 16 19 21 22 24 23 22 22 22 21 22 21 21 21 21 21 21 21 20
20 19 16 13 11 11 10 9 8 11 10 7 8 13 13 14 12 14 16 18 18 18 13 13 16 19 21 22 21 20 20 21 21 21 21 21 21 21 21 21 21 21 25
14 14 16 16 13 12 9 10 9 5 6 10 10 7 16 11 11 17 20 24 19 18 13 13 16 18 19 18 18 18 19 19 19 19 20 21 21 21 20 19 19 21 25
17 16 15 14 12 12 10 7 8 11 10 8 8 6 5 5 13 13 7 8 10 11 12 13 15 17 16 16 16 17 17 18 18 19 20 21 22 22 21 21 21 23 22
14 15 14 12 12 11 9 9 9 8 8 7 5 13 9 10 11 11 10 7 10 8 11 12 14 15 14 14 15 15 16 17 17 18 21 22 21 21 21 21 22 22 20
15 14 12 12 11 9 8 10 9 8 8 7 5 14 15 12 7 11 11 8 10 10 11 12 13 13 12 13 13 14 16 15 15 20 21 22 23 22 20 21 22 23 19
12 12 13 11 10 10 10 11 9 3 8 10 8 6 5 8 8 11 7 7 9 10 11 12 12 12 12 14 14 14 11 15 23 17 18 21 21 21 21 21 20 23 25
12 14 13 12 11 11 8 7 10 7 5 4 8 5 7 6 7 9 10 8 8 10 11 12 12 12 13 14 14 10 15 25 19 22 20 19 21 21 19 19 20 22 24
12 13 13 11 12 12 10 11 6 5 5 4 3 4 5 8 9 10 10 9 10 10 11 11 12 12 13 13 7 16 24 22 23 22 22 19 16 17 17 20 21 23 24
Wind_Direction
175 182 180 182 177 173 170 161 157 152 143 142 144 119 31 14 12 355 348 33 356 357 2 359 357 351 348 345 341 345 335 344 321 325 323 333 322 325 326 319 317 301 290
177 176 178 178 174 177 169 165 160 155 155 144 103 73 51 41 26 1 355 355 1 359 359 358 4 358 354 358 344 359 346 337 329 311 329 322 329 332 329 339 320 310 318
166 173 171 172 178 177 167 167 158 156 148 110 102 86 64 44 23 21 26 12 6 10 17 22 10 5 6 358 354 355 351 340 333 331 318 334 340 10 346 333 340 328 312
168 173 170 175 179 185 164 161 153 149 128 118 114 102 70 53 47 36 33 23 32 31 38 43 27 24 14 3 4 1 357 345 345 347 339 344 343 347 344 345 336 333 331
177 172 174 176 176 172 170 148 154 137 127 124 110 92 74 63 56 63 64 56 56 54 52 53 43 30 20 28 23 15 10 3 353 346 341 338 343 344 343 335 329 331 328
172 169 167 165 157 168 158 127 136 131 124 122 115 102 101 106 124 124 99 96 85 72 60 51 50 32 11 3 13 9 9 17 5 350 345 346 345 335 336 332 321 329 329
161 157 166 165 163 149 147 133 128 132 127 126 126 127 126 115 124 122 102 96 83 68 60 51 39 28 27 16 6 4 350 353 16 343 341 341 332 336 332 330 328 321 316
160 166 166 162 162 150 150 143 146 139 136 135 144 139 130 132 129 117 105 98 88 78 68 61 48 25 21 23 354 358 355 349 334 341 335 330 336 329 333 325 306 312 316
162 168 167 163 164 164 154 145 137 140 144 143 146 145 144 140 134 134 113 127 95 94 69 59 27 357 349 353 348 337 335 340 342 330 316 301 310 308 311 331 340 328 331
165 163 168 159 163 157 152 150 150 146 143 151 151 152 153 152 152 153 178 227 102 298 221 244 286 301 328 331 329 324 317 330 329 314 310 318 293 305 304 293 332 330 329
165 162 160 159 157 149 142 144 147 150 151 147 152 153 154 160 162 158 149 24 357 328 327 326 345 328 320 319 316 304 294 298 308 299 297 320 317 311 308 318 318 315 317
167 167 162 157 148 145 144 147 148 144 149 153 157 166 170 175 192 181 173 193 329 329 316 318 323 319 316 314 311 301 303 299 301 301 320 325 320 317 313 314 298 288 296
160 161 151 146 145 146 146 148 148 158 157 163 171 186 176 192 209 217 233 267 293 296 293 304 313 311 303 295 297 300 293 274 292 313 318 308 310 311 303 297 297 297 296
149 143 146 142 139 148 153 157 159 170 170 174 183 197 185 191 207 195 215 241 273 273 310 318 310 303 291 278 283 298 304 280 307 305 304 313 312 306 302 304 304 304 309
140 150 149 148 151 152 153 171 172 165 184 187 193 199 194 204 149 152 313 311 310 306 306 311 308 304 336 322 322 321 320 322 320 316 319 318 311 305 301 303 305 309 301
152 159 160 160 155 165 158 146 142 166 189 181 176 181 142 102 107 279 279 286 294 299 300 299 291 301 301 296 327 325 328 325 324 323 311 307 308 306 305 309 302 297 307
160 151 157 160 167 162 165 162 167 184 199 198 203 221 223 234 259 275 284 287 294 292 282 287 303 323 314 329 328 327 324 325 324 316 314 312 310 305 302 305 308 303 314
142 145 158 174 164 165 160 169 164 167 183 206 223 228 242 250 262 272 273 276 286 278 279 277 301 321 321 331 325 324 322 322 318 318 313 305 305 307 310 308 306 311 312
146 168 166 164 162 163 162 164 164 187 198 200 209 213 223 230 243 254 259 263 273 291 303 312 310 323 328 324 323 320 321 316 316 312 313 316 318 315 311 311 311 304 299
163 182 156 148 159 169 169 182 184 177 201 220 231 234 180 202 231 245 252 257 263 282 317 301 326 324 321 319 319 320 318 320 321 324 326 323 320 318 312 308 303 303 293
158 158 154 162 174 178 184 185 194 207 207 204 205 197 139 263 281 280 317 283 293 285 313 326 318 318 317 321 322 323 322 323 327 330 329 325 322 317 314 309 305 299 313
163 173 178 177 176 176 181 198 207 207 220 227 212 152 199 249 274 291 251 304 276 315 324 319 316 320 320 324 324 322 323 323 329 332 326 321 319 316 313 310 310 304 302
180 176 181 173 177 164 190 218 199 220 242 245 245 175 196 237 313 293 303 310 345 331 318 317 318 318 322 323 321 323 318 326 327 324 319 316 314 311 310 304 306 306 312
177 181 184 171 186 190 205 202 222 279 317 309 284 260 278 290 315 342 347 324 316 313 316 319 319 316 319 321 321 319 327 323 321 318 314 309 307 307 307 305 305 309 320
181 188 186 180 180 221 198 239 217 196 221 256 290 295 344 5 321 323 310 317 311 306 313 318 313 314 315 319 316 317 311 319 321 321 319 306 301 302 299 300 308 316 310
187 190 194 199 200 214 207 215 224 236 250 258 291 318 311 334 320 304 294 298 287 295 304 309 311 311 313 318 310 317 325 328 324 322 319 314 304 304 304 306 307 311 313